Flag for Germany Weather past 2 weeks in Frankfurt an der Oder, Brandenburg, Germany

Now
37 °F

Passing clouds.


Feels Like: 33 °F
Forecast: 31 / 36 °F
Wind: 6 mph from South

Location: Lindenberg

Current Time: Jan 29, 2015 at 5:47:58 PM

Latest Report: Jan 29, 2015 at 5:00 PM


Visibility: 28 mi

Pressure: 29.12 "Hg

Humidity: 73%

Dew point: 29 °F

Location of Frankfurt an der OderLocation

Historic Weather in Frankfurt an der Oder — Graph

°F

Frankfurt an der Oder temperature yesterday

Maximum temperature yesterday: 40 °F (at 2:00 PM)
Minimum temperature yesterday: 32 °F (at 3:00 AM)
Average temperature yesterday: 37 °F

Past Weeks' High & Low Weather Summary

 TemperatureHumidityPressure
High49 °F (Jan 15, 11:00 PM)100% (Jan 17, 10:00 PM)30.32 "Hg (Jan 17, 10:00 PM)
Low24 °F (Jan 23, 11:00 PM)55% (Jan 15, 11:00 PM)29.12 "Hg (Jan 29, 5:00 PM)
Average34 °F92%29.94 "Hg
* Reported Jan 14 5:00 PM — Jan 29 5:00 PM, Frankfurt an der Oder, Weather by CustomWeather, © 2014

Note: Actual official high and low records may vary slightly from our data, if they occured in-between our weather recording intervals... More about our weather records

Advertising

Frankfurt an der Oder weather history for previous 24 hours

 ConditionsComfort  
Time TempWeatherWind HumidityBarometerVisibility
5:00 PM
Jan 29
37 °FPassing clouds.6 mph73%29.12 "Hg28 mi
3:00 PM38 °FOvercast.6 mph66%29.15 "Hg25 mi
2:00 PM38 °FOvercast.7 mph65%29.21 "Hg28 mi
1:00 PM37 °FOvercast.8 mph67%29.23 "Hg28 mi
12:00 PM37 °FOvercast.10 mph68%29.26 "Hg28 mi
11:00 AM37 °FPassing clouds.9 mph72%29.26 "Hg25 mi
10:00 AM35 °FPassing clouds.9 mph78%29.29 "Hg28 mi
9:00 AM33 °FPassing clouds.7 mph86%29.29 "Hg28 mi
8:00 AM34 °FOvercast.7 mph87%29.29 "Hg28 mi
7:00 AM34 °FPassing clouds.8 mph88%29.29 "Hg22 mi
6:00 AM34 °FPassing clouds.7 mph90%29.29 "Hg25 mi
5:00 AM34 °FPassing clouds.6 mph94%29.29 "Hg19 mi
4:00 AM35 °FOvercast.7 mph90%29.29 "Hg19 mi
3:00 AM36 °FPassing clouds.8 mph90%29.29 "Hg25 mi
2:00 AM37 °FPassing clouds.8 mph92%29.26 "Hg25 mi
1:00 AM37 °FOvercast.8 mph95%29.29 "Hg7 mi
12:00 AM36 °FLight rain. Low clouds.9 mph96%29.29 "Hg3 mi
11:00 PM
Jan 28
36 °FLight rain. Low clouds.8 mph96%29.32 "Hg2 mi
10:00 PM37 °FLight rain. Overcast.9 mph92%29.35 "Hg5 mi
9:00 PM40 °FOvercast.9 mph72%29.38 "Hg19 mi
8:00 PM40 °FOvercast.8 mph75%29.44 "Hg9 mi
6:00 PM39 °FOvercast.7 mph78%29.56 "Hg9 mi
5:00 PM40 °FOvercast.7 mph79%29.61 "Hg12 mi
Weather by CustomWeather, © 2014

See weather overviewHow to use our weather pages